When you browse on this site, cookies collect data to enhance your experience and personalize the content and advertising you see.
Visit our Privacy Policy to learn more. By continuing to use the site, you agree to this use of cookies and data.
  • En España
  • Lista de países
  • Para 7 días
  • Temperatura del agua
  • El tiempo en el mapa
  • Informadores
  • user-avatar
    Iniciar sesión

    Tiempo cada hora Makadi Bey

    Hoy, 29 Febrero, Sábado

    Tiempo Temperatura Precipitaciones Viento Presión Humedad
    00:00 +14°C° 0 mm 2 mps 706 mmHg 34%
    01:00 +14°C° 0 mm 2 mps 705 mmHg 34%
    02:00 +14°C° 0 mm 2 mps 705 mmHg 34%
    03:00 +14°C° 0 mm 2 mps 705 mmHg 34%
    04:00 +13°C° 0 mm 2 mps 705 mmHg 34%
    05:00 +13°C° 0 mm 2 mps 705 mmHg 34%
    06:00 +15°C° 0 mm 2 mps 706 mmHg 29%
    07:00 +17°C° 0 mm 3 mps 707 mmHg 25%
    08:00 +19°C° 0 mm 3 mps 707 mmHg 21%
    09:00 +21°C° 0 mm 4 mps 707 mmHg 19%
    10:00 +22°C° 0 mm 5 mps 708 mmHg 16%
    11:00 +24°C° 0 mm 6 mps 708 mmHg 13%
    12:00 +24°C° 0 mm 7 mps 707 mmHg 13%
    13:00 +26°C° 0 mm 7 mps 707 mmHg 13%
    14:00 +26°C° 0 mm 7 mps 706 mmHg 13%
    15:00 +24°C° 0 mm 7 mps 706 mmHg 15%
    16:00 +23°C° 0 mm 7 mps 707 mmHg 16%
    17:00 +22°C° 0 mm 8 mps 707 mmHg 18%
    18:00 +18°C° 0 mm 7 mps 707 mmHg 24%
    19:00 +16°C° 0 mm 6 mps 707 mmHg 30%
    20:00 +13°C° 0 mm 5 mps 707 mmHg 36%
    21:00 +13°C° 0 mm 5 mps 707 mmHg 39%
    22:00 +12°C° 0 mm 4 mps 707 mmHg 42%
    23:00 +12°C° 0 mm 4 mps 707 mmHg 44%

    Mañana, 1 Marzo, Domingo

    Tiempo Temperatura Precipitaciones Viento Presión Humedad
    00:00 +11°C° 0 mm 4 mps 707 mmHg 48%
    01:00 +10°C° 0 mm 4 mps 706 mmHg 51%
    02:00 +8°C° 0 mm 4 mps 706 mmHg 54%
    03:00 +9°C° 0 mm 3 mps 706 mmHg 58%
    04:00 +8°C° 0 mm 3 mps 706 mmHg 62%
    05:00 +8°C° 0 mm 3 mps 706 mmHg 66%
    06:00 +9°C° 0 mm 3 mps 707 mmHg 61%
    07:00 +11°C° 0 mm 3 mps 708 mmHg 55%
    08:00 +12°C° 0 mm 3 mps 708 mmHg 49%
    09:00 +16°C° 0 mm 3 mps 709 mmHg 39%
    10:00 +18°C° 0 mm 3 mps 709 mmHg 29%
    11:00 +20°C° 0 mm 3 mps 710 mmHg 20%
    12:00 +22°C° 0 mm 3 mps 709 mmHg 17%
    13:00 +24°C° 0 mm 3 mps 709 mmHg 15%
    14:00 +25°C° 0 mm 3 mps 709 mmHg 12%
    15:00 +23°C° 0 mm 4 mps 708 mmHg 13%
    16:00 +23°C° 0 mm 4 mps 708 mmHg 14%
    17:00 +22°C° 0 mm 4 mps 708 mmHg 15%
    18:00 +18°C° 0 mm 3 mps 708 mmHg 21%
    19:00 +15°C° 0 mm 2 mps 708 mmHg 28%
    20:00 +12°C° 0 mm 2 mps 708 mmHg 35%
    21:00 +11°C° 0 mm 1 mps 708 mmHg 36%
    22:00 +10°C° 0 mm 1 mps 708 mmHg 38%
    23:00 +9°C° 0 mm 1 mps 708 mmHg 39%

    Pasado mañana, 2 Marzo, Lunes

    Tiempo Temperatura Precipitaciones Viento Presión Humedad
    00:00 +9°C° 0 mm 1 mps 707 mmHg 40%
    01:00 +8°C° 0 mm 0 mps 707 mmHg 41%
    02:00 +7°C° 0 mm 0 mps 707 mmHg 43%
    03:00 +7°C° 0 mm 0 mps 707 mmHg 46%
    04:00 +6°C° 0 mm 0 mps 707 mmHg 49%
    05:00 +6°C° 0 mm 0 mps 706 mmHg 52%
    06:00 +10°C° 0 mm 1 mps 707 mmHg 43%
    07:00 +12°C° 0 mm 1 mps 708 mmHg 34%
    08:00 +15°C° 0 mm 1 mps 709 mmHg 25%
    09:00 +19°C° 0 mm 1 mps 709 mmHg 21%
    10:00 +21°C° 0 mm 1 mps 710 mmHg 17%
    11:00 +23°C° 0 mm 1 mps 710 mmHg 13%
    12:00 +24°C° 0 mm 2 mps 709 mmHg 12%
    13:00 +26°C° 0 mm 2 mps 709 mmHg 11%
    14:00 +27°C° 0 mm 2 mps 709 mmHg 10%
    15:00 +25°C° 0 mm 3 mps 708 mmHg 16%
    16:00 +24°C° 0 mm 3 mps 708 mmHg 22%
    17:00 +22°C° 0 mm 3 mps 708 mmHg 28%
    18:00 +19°C° 0 mm 3 mps 708 mmHg 37%
    19:00 +16°C° 0 mm 2 mps 708 mmHg 47%
    20:00 +14°C° 0 mm 2 mps 708 mmHg 56%
    21:00 +13°C° 0 mm 2 mps 708 mmHg 55%
    22:00 +13°C° 0 mm 1 mps 708 mmHg 54%
    23:00 +12°C° 0 mm 1 mps 708 mmHg 53%

    3 Marzo, Martes

    Tiempo Temperatura Precipitaciones Viento Presión Humedad
    00:00 +12°C° 0 mm 1 mps 707 mmHg 48%
    01:00 +11°C° 0 mm 1 mps 707 mmHg 43%
    02:00 +11°C° 0 mm 1 mps 707 mmHg 38%
    03:00 +10°C° 0 mm 1 mps 707 mmHg 36%
    04:00 +10°C° 0 mm 1 mps 707 mmHg 35%
    05:00 +10°C° 0 mm 1 mps 706 mmHg 33%
    06:00 +13°C° 0 mm 1 mps 707 mmHg 28%
    07:00 +16°C° 0 mm 1 mps 708 mmHg 23%
    08:00 +19°C° 0 mm 2 mps 709 mmHg 18%
    09:00 +21°C° 0 mm 2 mps 709 mmHg 15%
    10:00 +24°C° 0 mm 3 mps 709 mmHg 12%
    11:00 +26°C° 0 mm 3 mps 710 mmHg 8%
    12:00 +27°C° 0 mm 3 mps 709 mmHg 8%
    13:00 +28°C° 0 mm 3 mps 709 mmHg 8%
    14:00 +29°C° 0 mm 4 mps 708 mmHg 8%
    15:00 +27°C° 0 mm 3 mps 708 mmHg 11%
    16:00 +26°C° 0 mm 3 mps 708 mmHg 15%
    17:00 +25°C° 0 mm 3 mps 707 mmHg 18%
    18:00 +21°C° 0 mm 3 mps 707 mmHg 24%
    19:00 +18°C° 0 mm 2 mps 707 mmHg 29%
    20:00 +15°C° 0 mm 2 mps 707 mmHg 34%
    21:00 +15°C° 0 mm 2 mps 706 mmHg 33%
    22:00 +14°C° 0 mm 1 mps 706 mmHg 31%
    23:00 +14°C° 0 mm 1 mps 706 mmHg 29%

    4 Marzo, Miércoles

    Tiempo Temperatura Precipitaciones Viento Presión Humedad
    00:00 +13°C° 0 mm 1 mps 706 mmHg 32%
    01:00 +13°C° 0 mm 1 mps 705 mmHg 34%
    02:00 +11°C° 0 mm 0 mps 705 mmHg 37%
    03:00 +11°C° 0 mm 0 mps 705 mmHg 40%
    04:00 +11°C° 0 mm 1 mps 705 mmHg 43%
    05:00 +11°C° 0 mm 1 mps 704 mmHg 46%
    06:00 +15°C° 0 mm 1 mps 705 mmHg 33%
    07:00 +17°C° 0 mm 0 mps 706 mmHg 20%
    08:00 +21°C° 0 mm 0 mps 707 mmHg 8%
    09:00 +25°C° 0 mm 1 mps 707 mmHg 7%
    10:00 +27°C° 0 mm 1 mps 707 mmHg 5%
    11:00 +29°C° 0 mm 1 mps 707 mmHg 4%
    12:00 +29°C° 0 mm 2 mps 707 mmHg 5%
    13:00 +30°C° 0 mm 3 mps 706 mmHg 5%
    14:00 +32°C° 0 mm 4 mps 706 mmHg 5%
    15:00 +30°C° 0 mm 3 mps 706 mmHg 7%
    16:00 +29°C° 0 mm 3 mps 705 mmHg 8%
    17:00 +28°C° 0 mm 2 mps 705 mmHg 9%
    18:00 +24°C° 0 mm 2 mps 705 mmHg 12%
    19:00 +21°C° 0 mm 1 mps 705 mmHg 15%
    20:00 +16°C° 0 mm 1 mps 704 mmHg 18%
    21:00 +16°C° 0 mm 1 mps 704 mmHg 17%
    22:00 +16°C° 0 mm 1 mps 704 mmHg 15%
    23:00 +15°C° 0 mm 1 mps 704 mmHg 14%

    5 Marzo, Jueves

    Tiempo Temperatura Precipitaciones Viento Presión Humedad
    00:00 +15°C° 0 mm 1 mps 704 mmHg 15%
    01:00 +14°C° 0 mm 1 mps 704 mmHg 16%
    02:00 +14°C° 0 mm 1 mps 703 mmHg 17%
    03:00 +14°C° 0 mm 1 mps 703 mmHg 18%
    04:00 +13°C° 0 mm 1 mps 703 mmHg 20%
    05:00 +13°C° 0 mm 2 mps 703 mmHg 21%
    06:00 +16°C° 0 mm 1 mps 704 mmHg 17%
    07:00 +20°C° 0 mm 1 mps 704 mmHg 13%
    08:00 +23°C° 0 mm 1 mps 705 mmHg 10%
    09:00 +25°C° 0 mm 2 mps 705 mmHg 9%
    10:00 +27°C° 0 mm 4 mps 706 mmHg 8%
    11:00 +29°C° 0 mm 5 mps 706 mmHg 6%
    12:00 +30°C° 0 mm 5 mps 705 mmHg 7%
    13:00 +30°C° 0 mm 6 mps 705 mmHg 7%
    14:00 +32°C° 0 mm 7 mps 704 mmHg 7%
    15:00 +30°C° 0 mm 6 mps 704 mmHg 7%
    16:00 +30°C° 0 mm 6 mps 704 mmHg 7%
    17:00 +29°C° 0 mm 6 mps 704 mmHg 7%
    18:00 +27°C° 0 mm 6 mps 704 mmHg 9%
    19:00 +24°C° 0 mm 6 mps 704 mmHg 10%
    20:00 +22°C° 0 mm 6 mps 704 mmHg 11%
    21:00 +20°C° 0 mm 6 mps 704 mmHg 19%
    22:00 +17°C° 0 mm 6 mps 705 mmHg 27%
    23:00 +16°C° 0 mm 5 mps 705 mmHg 35%
    Mostrar más